TimeCDT,TemperatureF,Dew PointF,Humidity,Sea Level PressureIn,VisibilityMPH,Wind Direction,Wind SpeedMPH,Gust SpeedMPH,PrecipitationIn,Events,Conditions,WindDirDegrees,DateUTC
12:21 AM,80.6,73.4,79,29.89,10.0,Calm,Calm,-,N/A,,Scattered Clouds,0,2013-08-28 05:21:00
12:36 AM,78.8,73.4,83,29.89,10.0,Calm,Calm,-,N/A,,Scattered Clouds,0,2013-08-28 05:36:00
12:56 AM,78.8,75.2,89,29.89,10.0,NNW,3.5,-,N/A,,Mostly Cloudy,330,2013-08-28 05:56:00
1:16 AM,78.8,75.2,89,29.89,10.0,Calm,Calm,-,N/A,,Scattered Clouds,0,2013-08-28 06:16:00
1:56 AM,77.0,73.4,89,29.89,10.0,NNW,3.5,-,N/A,,Clear,330,2013-08-28 06:56:00
2:16 AM,77.0,73.4,89,29.89,10.0,NW,3.5,-,N/A,,Clear,320,2013-08-28 07:16:00
2:35 AM,77.0,73.4,89,29.89,10.0,NW,3.5,-,N/A,,Clear,320,2013-08-28 07:35:00
2:56 AM,77.0,73.4,89,29.89,10.0,Calm,Calm,-,N/A,,Mostly Cloudy,0,2013-08-28 07:56:00
3:16 AM,77.0,73.4,89,29.89,10.0,Calm,Calm,-,N/A,,Mostly Cloudy,0,2013-08-28 08:16:00
3:35 AM,77.0,73.4,89,29.90,10.0,NW,3.5,-,N/A,,Overcast,310,2013-08-28 08:35:00
3:56 AM,77.0,73.4,89,29.90,10.0,WNW,3.5,-,N/A,,Scattered Clouds,300,2013-08-28 08:56:00
4:16 AM,73.4,71.6,94,29.91,10.0,NW,3.5,-,N/A,,Scattered Clouds,310,2013-08-28 09:16:00
4:35 AM,73.4,71.6,94,29.92,10.0,NW,3.5,-,N/A,,Mostly Cloudy,310,2013-08-28 09:35:00
4:56 AM,73.4,71.6,94,29.92,10.0,Calm,Calm,-,N/A,,Mostly Cloudy,0,2013-08-28 09:56:00
5:16 AM,73.4,71.6,94,29.93,10.0,NNW,3.5,-,N/A,,Mostly Cloudy,340,2013-08-28 10:16:00
5:35 AM,73.4,71.6,94,29.93,10.0,Calm,Calm,-,N/A,,Scattered Clouds,0,2013-08-28 10:35:00
5:56 AM,73.4,71.6,94,29.94,10.0,Calm,Calm,-,N/A,,Scattered Clouds,0,2013-08-28 10:56:00
6:16 AM,73.4,71.6,94,29.94,10.0,Calm,Calm,-,N/A,,Scattered Clouds,0,2013-08-28 11:16:00
6:35 AM,73.4,71.6,94,29.95,7.0,East,3.5,-,N/A,,Mostly Cloudy,80,2013-08-28 11:35:00
6:56 AM,73.4,71.6,94,29.96,7.0,Calm,Calm,-,N/A,,Mostly Cloudy,0,2013-08-28 11:56:00
7:16 AM,75.2,71.6,89,29.96,7.0,Calm,Calm,-,N/A,,Overcast,0,2013-08-28 12:16:00
7:35 AM,77.0,73.4,89,29.97,10.0,ENE,3.5,-,N/A,,Mostly Cloudy,60,2013-08-28 12:35:00
7:56 AM,77.0,71.6,83,29.98,10.0,East,3.5,-,N/A,,Mostly Cloudy,80,2013-08-28 12:56:00
8:16 AM,77.0,71.6,83,29.98,10.0,East,5.8,-,N/A,,Overcast,100,2013-08-28 13:16:00
8:35 AM,77.0,71.6,83,29.99,10.0,East,3.5,-,N/A,,Overcast,100,2013-08-28 13:35:00
8:56 AM,77.0,71.6,83,29.99,10.0,ESE,6.9,-,N/A,,Overcast,110,2013-08-28 13:56:00
9:16 AM,77.0,71.6,83,29.99,7.0,SE,9.2,-,N/A,,Overcast,130,2013-08-28 14:16:00
9:36 AM,77.0,69.8,78,30.00,10.0,SE,10.4,-,N/A,,Overcast,130,2013-08-28 14:36:00
9:55 AM,77.0,69.8,78,30.01,10.0,ESE,9.2,-,N/A,,Overcast,120,2013-08-28 14:55:00
10:16 AM,77.0,69.8,78,30.02,10.0,ESE,6.9,-,N/A,,Overcast,120,2013-08-28 15:16:00
10:35 AM,77.0,69.8,78,30.02,10.0,ESE,6.9,-,N/A,,Overcast,120,2013-08-28 15:35:00
10:56 AM,77.0,69.8,78,30.02,10.0,East,5.8,-,N/A,,Overcast,100,2013-08-28 15:56:00
11:16 AM,78.8,69.8,74,30.02,10.0,ESE,8.1,-,N/A,,Overcast,110,2013-08-28 16:16:00
11:35 AM,78.8,69.8,74,30.02,10.0,East,6.9,-,N/A,,Overcast,90,2013-08-28 16:35:00
11:56 AM,78.8,69.8,74,30.02,10.0,ESE,5.8,-,N/A,,Overcast,110,2013-08-28 16:56:00
12:16 PM,78.8,68.0,69,30.02,10.0,ESE,8.1,-,N/A,,Overcast,110,2013-08-28 17:16:00
12:35 PM,78.8,68.0,69,30.02,10.0,East,6.9,-,N/A,,Overcast,100,2013-08-28 17:35:00
12:56 PM,80.6,68.0,65,30.02,10.0,East,8.1,-,N/A,,Overcast,90,2013-08-28 17:56:00
1:16 PM,80.6,68.0,65,30.02,10.0,NE,5.8,-,N/A,,Overcast,50,2013-08-28 18:16:00
1:35 PM,80.6,68.0,65,30.02,10.0,East,8.1,-,N/A,,Mostly Cloudy,100,2013-08-28 18:35:00
1:56 PM,82.4,68.0,62,30.01,10.0,SE,4.6,-,N/A,,Mostly Cloudy,140,2013-08-28 18:56:00
2:16 PM,82.4,68.0,62,30.00,10.0,SE,4.6,-,N/A,,Scattered Clouds,130,2013-08-28 19:16:00
2:35 PM,80.6,68.0,65,30.01,10.0,ESE,4.6,-,N/A,,Clear,110,2013-08-28 19:35:00
2:56 PM,82.4,68.0,62,30.01,10.0,Calm,Calm,-,N/A,,Clear,0,2013-08-28 19:56:00
3:16 PM,80.6,69.8,70,30.01,10.0,NE,3.5,-,N/A,,Clear,40,2013-08-28 20:16:00
3:35 PM,82.4,69.8,66,30.00,10.0,Calm,Calm,-,N/A,,Clear,0,2013-08-28 20:35:00
3:56 PM,86.0,69.8,58,30.00,10.0,Calm,Calm,-,N/A,,Clear,0,2013-08-28 20:56:00
4:16 PM,86.0,69.8,58,30.01,10.0,Calm,Calm,-,N/A,,Clear,0,2013-08-28 21:16:00
4:35 PM,86.0,69.8,58,30.00,10.0,East,4.6,-,N/A,,Clear,90,2013-08-28 21:35:00
4:56 PM,86.0,69.8,58,29.99,10.0,ESE,5.8,-,N/A,,Clear,110,2013-08-28 21:56:00
5:16 PM,86.0,69.8,58,30.00,10.0,ESE,5.8,-,N/A,,Clear,110,2013-08-28 22:16:00
5:35 PM,86.0,69.8,58,30.00,10.0,East,4.6,-,N/A,,Clear,90,2013-08-28 22:35:00
5:56 PM,84.2,68.0,58,30.00,10.0,ESE,4.6,-,N/A,,Clear,110,2013-08-28 22:56:00
6:15 PM,84.2,68.0,58,30.00,10.0,East,3.5,-,N/A,,Clear,100,2013-08-28 23:15:00
6:36 PM,82.4,69.8,66,30.01,10.0,East,3.5,-,N/A,,Clear,80,2013-08-28 23:36:00
6:56 PM,80.6,71.6,74,30.01,10.0,Calm,Calm,-,N/A,,Clear,0,2013-08-28 23:56:00
7:15 PM,80.6,71.6,74,30.02,10.0,Calm,Calm,-,N/A,,Clear,0,2013-08-29 00:15:00
7:36 PM,80.6,71.6,74,29.99,10.0,ESE,8.1,-,N/A,,Clear,120,2013-08-29 00:36:00
7:56 PM,78.8,69.8,74,29.99,10.0,SSE,3.5,-,N/A,,Clear,150,2013-08-29 00:56:00
8:15 PM,78.8,69.8,74,29.99,10.0,Calm,Calm,-,N/A,,Clear,0,2013-08-29 01:15:00
8:36 PM,78.8,71.6,78,30.00,10.0,Calm,Calm,-,N/A,,Clear,0,2013-08-29 01:36:00
8:56 PM,78.8,69.8,74,30.01,10.0,Calm,Calm,-,N/A,,Clear,0,2013-08-29 01:56:00
9:15 PM,78.8,69.8,74,30.02,10.0,Calm,Calm,-,N/A,,Clear,0,2013-08-29 02:15:00
9:36 PM,77.0,71.6,83,30.02,10.0,Calm,Calm,-,N/A,,Clear,0,2013-08-29 02:36:00
9:56 PM,77.0,71.6,83,30.02,10.0,Calm,Calm,-,N/A,,Clear,0,2013-08-29 02:56:00
10:15 PM,77.0,71.6,83,30.03,10.0,Calm,Calm,-,N/A,,Clear,0,2013-08-29 03:15:00
10:36 PM,75.2,71.6,89,30.03,10.0,Calm,Calm,-,N/A,,Clear,0,2013-08-29 03:36:00
10:55 PM,73.4,71.6,94,30.03,10.0,Calm,Calm,-,N/A,,Clear,0,2013-08-29 03:55:00
11:16 PM,73.4,69.8,88,30.02,10.0,SE,5.8,-,N/A,,Clear,140,2013-08-29 04:16:00
11:36 PM,77.0,71.6,83,30.02,10.0,SE,5.8,-,N/A,,Clear,130,2013-08-29 04:36:00
11:55 PM,73.4,69.8,88,30.02,10.0,SE,4.6,-,N/A,,Clear,140,2013-08-29 04:55:00